{"data":{"norad_id":50490,"intl_designator":"2021-132X","name":"ONEWEB-0413","alt_names":[],"object_type":"PAYLOAD","status":"ACTIVE","operator":null,"country":"UK","launch_date":"2021-12-27","launch_site_code":"TYMSC","launch_vehicle":null,"mission":null,"orbit_class":"UNKNOWN","rcs_meters":null,"size_class":null,"mass_kg":null,"dimensions":null,"purposes":["comms"],"wikipedia_slug":null,"has_3d_model":false,"image_url":null,"decayed_at":null,"tle_current":{"epoch":"2026-09-19T12:00:23.531904Z","epoch_age_seconds":112224,"freshness":"FRESH","line1":"1 50490U 21132X   26262.50027236 -.00000088  00000+0 -25498-3 0  9998","line2":"2 50490  87.9166 316.7162 0002124  90.0004 270.1372 13.18685016234027","mean_motion":13.18685016,"eccentricity":0.0002124,"inclination_deg":87.9166,"raan_deg":316.7162,"arg_perigee_deg":90.0004,"mean_anomaly_deg":270.1372,"bstar":-0.00025498,"rev_number":23402,"period_min":109.1996938259,"perigee_km":1188.1394730855,"apogee_km":1191.3543101626,"semimajor_km":7567.8838916241,"source":"CELESTRAK","updated_at":"2026-09-20T09:00:44.703886Z"}}}